Location: ??
(35.5052°N, 139.7262°E)
Time: 00:02:35
(UTC+00:00)

FALCON 9 DEB - Pass Details

Date: 20 June 2021
Orbit: 421 x 432 km, 53.0° (Epoch: 05 August)

Event Time Altitude Azimuth Distance (km) Brightness Sun altitude
Rises 17:06:33 0° 318° (NW) 2,384 7.0 -21.9°
Reaches altitude 10° 17:08:43 10° 324° (NW) 1,514 6.1 -21.7°
Maximum altitude 17:12:01 49° 41° (NE) 549 4.0 -21.3°
Drops below altitude 10° 17:15:18 10° 118° (ESE) 1,500 5.9 -20.9°
Sets 17:17:26 0° 124° (ESE) 2,360 6.9 -20.6°
